www.pogodaiklimat.ru

Погода и климат >> Архив погоды >> Гондурас >> Ла-Эсперанса


ПОГОДА в Ла-Эсперансе

  • Прогноз погоды в Ла-Эсперансе
  • Монитор погоды в Ла-Эсперансе

АРХИВ ПОГОДЫ в Ла-Эсперансе

Время (UTC), дата Ветер
(напр.,м/с)
 
Видим.   Явления Облачность Т
(С)
Тd
(С)
f
(%)
Тe
(С)
Тes
(С)
Комфортность P
(гПа)
Po
(гПа)
Тmin
(С)
Tmax
(С)
R
(мм)
R24
(мм)
S
(см)
12 9.09 штиль 0 6000 м дымка 6/1 540 м
[Sc diur, vesp Ac trans Ci fib]
+13.8 +13.5 98 +13 +13 1013.5 836.7 +12.7 +25.0
15 9.09 штиль 0 20 км {туман} 9/0 600 м
[Ac As]
+21.0 +16.2 74 +24 +36 комфорт 1012.6 837.5
18 9.09 В 4 20 км {туман} 9/0 600 м
[Ac As]
+24.4 +12.7 48 +28 +33 душно 1011.0 836.8 +12.7 +24.4
21 9.09 штиль 0 20 км 8/5 720 м
[Cb cap Ci fib]
+23.6 +16.6 65 +27 +27 жарко 1009.4 834.9
00 10.09 В 1 15 км 9/5 600 м
[Cb cap As op Ci]
+16.8 +12.7 77 +18 +18 1013.0 835.1 +12.7 +25.4 1
12 10.09 штиль 0 20 км 6/1 600 м
[Sc diur, vesp Ac trans Cs]
+12.8 +12.6 99 +12 +12 1014.5 836.4 +12.0 +25.4 4
15 10.09 штиль 0 20 км 8/1 660 м
[Cu hum Cs]
+21.5 +15.8 70 +25 +37 комфорт 1013.1 937.4
18 10.09 штиль 0 20 км 4/4 720 м
[Cu hum Ci fib]
+24.4 +14.7 55 +27 +44 жарко 1012.4 837.3 +12.0 +24.4
21 10.09 СВ 2 20 км 4/4 720 м
[Cu med, cong Ci fib]
+23.6 +16.6 65 +27 +33 жарко 1010.0 835.3
00 11.09 СВ 2 20 км 6/6 660 м
[Cb cap Ac cuf Ci ing]
+21.2 +17.9 81 +25 +25 комфорт 1011.7 835.1 +12.0 +25.5
12 11.09 С 1 20 км 8/1 600 м
[Sc diur, vesp Ac trans Ci fib]
+15.6 +15.0 96 +16 +16 1012.7 837.5 +14.2 +25.5
15 11.09 СВ 2 20 км 8/1 720 м
[Cu hum Cs]
+21.6 +15.8 70 +25 +31 комфорт 1010.8 836.8
18 11.09 С 2 20 км 8/3 720 м
[Cu hum Cs]
+22.8 +14.9 61 +27 +39 душно 1010.8 836.0 +14.2 +22.8
21 11.09 С 2 10 км 8/0 720 м
[Ac As]
+24.1 +15.5 59 +27 +32 жарко 1007.2 833.9
00 12.09 С 2 20 км 4/4 720 м
[Cu hum Ac trans Ci fib]
+21.2 +16.0 72 +25 +25 комфорт 1007.7 833.4 +14.2 +24.5
12 12.09 С 2 20 км 6/6 600 м
[St As op]
+17.0 +15.0 88 +17 +17 1010.3 838.5 +15.0 +24.5
15 12.09 СВ 1 20 км 8/0 720 м
[Ac As]
+19.0 +15.3 79 +21 +28 комфорт 1010.3 835.3
18 12.09 С 2 20 км 5/5 720 м
[Cu hum Ci fib]
+23.6 +17.0 66 +27 +38 жарко 1009.6 835.0 +15.0 +23.6
21 12.09 СВ 1 20 км гроза без осадков 5/4 720 м
[Cu Sc As op Ci]
+24.2 +16.6 63 +28 +34 душно 1007.0 832.8
00 13.09 С 1 20 км гроза без осадков 8/5 720 м
[Cb cap As op Ci ing]
+20.2 +16.7 80 +24 +24 комфорт 1007.8 833.6 +15.0 +25.6
12 13.09 С 1 20 км 8/8 600 м
[Sc diur, vesp]
+15.2 +14.9 98 +16 +16 1009.8 834.5 +13.5 +25.6 3
15 13.09 СВ 1 20 км 8/1 720 м
[Cu hum Cs]
+20.4 +15.7 74 +24 +34 комфорт 1010.3 835.4
18 13.09 СВ 2 20 км 8/3 720 м
[Cu hum Cs]
+24.0 +14.6 56 +27 +39 жарко 1009.6 835.0 +13.5 +24.0
21 13.09 С 2 20 км 4/4 720 м
[Cu hum Ci fib]
+23.8 +15.7 60 +27 +33 жарко 1009.6 833.8
00 14.09 С 1 20 км 8/1 720 м
[Cu hum Ac cuf Cs]
+20.0 +15.4 75 +23 +23 комфорт 1007.7 834.1 +13.5 +25.0
12 14.09 штиль 0 10 км 3/1 540 м
[Sc diur, vesp Ci fib]
+13.6 +13.3 98 +13 +13 1010.6 834.8 +12.0 +25.0
18 14.09 В 3 20 км 4/0 600 м
[Ac As]
+23.4 +12.0 49 +28 +40 душно 1011.7 836.2 +12.0 +23.4
21 14.09 СВ 2 20 км 4/0 600 м
[Ac As]
+23.8 +16.8 65 +27 +33 жарко 1010.0 834.9
00 15.09 10 км гроза без осадков 9/8 660 м
[Cb cap Ac cuf Ci ing]
+20.4 +17.8 85 1012.5 835.9 +12.0 +24.8
12 15.09 штиль 0 10 км 8/8 540 м
[Sc diur, vesp Ci fib]
+16.6 +16.3 98 +16 +16 1011.1 835.8 +16.2 +24.8 4
15 15.09 штиль 0 20 км 9/3 600 м
[Cu hum Ac trans Cs]
+20.0 +17.0 83 +23 +29 комфорт 1012.1 836.6
18 15.09 СВ 2 20 км 6/4 720 м
[Cu hum Cs]
+23.4 +16.2 64 +28 +40 душно 1009.8 835.8 +16.2 +23.6
21 15.09 СВ 2 20 км 6/5 720 м
[Cb cap Ci ing]
+23.6 +17.0 66 +27 +32 жарко 1008.5 834.0
00 16.09 штиль 0 20 км 8/6 660 м
[Cb cap Ac cuf Ci ing]
+20.6 +17.8 84 +24 +24 комфорт 1009.6 834.5 +16.2 +24.7

 

Местоположение метеостанции Ла-Эсперанса (Гондурас): широта 14.32 долгота -88.16 высота над уровнем моря 1674 м.

В архиве по умолчанию представлена погода в Ла-Эсперансе за последнюю неделю. Архивные данные за месяц целиком и за предыдущие месяцы, начиная с января 2011 года, Вы можете получить, выбрав интересующий диапазон дат из раскрывающегося списка и нажав кнопку "Ввод!".


*Определитесь, кто Вы:
робот инопланетянин человек

Внимание! Время в таблицах - всемирное. Для получения местного времени необходимо прибавить поправку, которая равна -6 ч.

Смотрите также архив погоды в соседних городах и на ближайших метеорологических станциях:

Погода в Санта-Роза-де-Копане (Гондурас) (84 км)
Погода в Тегусигальпе (Гондурас) (107 км)
Погода в Нуэва Окотепеке (Гондурас) (111 км)
Погода в Ла-Лиме (Гондурас) (128 км)
Погода в Амапале (Гондурас) (129 км)
Погода в Йоро (Гондурас) (147 км)
Погода в Чолутеке (Гондурас) (155 км)
Погода в Пуэрто-Барриосе (Гватемала) (163 км)
Погода в Теле (Гондурас) (172 км)
Погода в Ла-Сейбе (Гондурас) (210 км)

Пояснения к столбцам:

Ветер - указаны скорость ветра в м/с - средняя за 10 мин, порывы в срок и между сроками (в фигурных скобках) и направление, откуда дует ветер: С - северный, СВ - северо-восточный, В - восточный, ЮВ - юго-восточный, Ю - южный, ЮЗ - юго-западный, З - западный, СЗ - северо-западный.
Видимость - горизонтальная дальность видимости в метрах или километрах. При видимости от 1 до 10 км при отсутствии осадков обычно наблюдается дымка, при ухудшении видимости до 1 км и менее - туман. В сухую погоду видимость может ухудшаться дымом, пылью или мглою.
Явления - указаны атмосферные явления, наблюдавшиеся в срок или в последний час перед сроком; фигурными скобками обозначены явления, наблюдавшиеся между сроками (за 1-3 часа до срока); квадратными скобками обозначены град или гололедные отложения с указанием их диаметра в мм.
Облачность - указаны через наклонную черту общая и нижняя облачность в баллах и высота нижней границы облаков в метрах; квадратными скобками обозначены формы облаков: Ci - перистые, Cs - перисто-слоистые, Cc - перисто-кучевые, Ac - высококучевые, As - высокослоистые, Sc - слоисто-кучевые, Ns - слоисто-дождевые, Cu - кучевые, Cb - кучево-дождевые. Подробнее классификацию облаков см. в Атласе облаков (PDF).
T - Температура воздуха - температура, измеренная на высоте 2 м над землей.
Td - Температура точки росы - температура, при понижении до которой содержащийся в воздухе водяной пар достигнет насыщения.
f - Относительная влажность воздуха - влажноcть воздуха, измеренная на высоте 2 м над землей.
Te - Эффективная температура - температура, которую ощущает одетый по сезону человек в тени. Характеристика душности погоды. При расчете учитывается влияние влажности воздуха и скорости ветра на теплоощущения человека.
Tes - Эффективная температура на солнце - температура, которую ощущает человек, с поправкой на солнечный нагрев. Характеристика знойности погоды. Зависит от высоты солнца над горизонтом, облачности и скорости ветра. Ночью, в пасмурную погоду, а также при ветре 12 м/с и более поправка равна нулю.
P - Атмосферное давление - приведенное к уровню моря атмосферное давление.
Po - Атмосферное давление - измеренное на уровне метеостанции атмосферное давление.
Tmin - Минимальная температура - минимум температуры воздуха на высоте 2 м над землей.
Tmax - Максимальная температура - максимум температуры воздуха на высоте 2 м над землей.
R - Количество осадков - Количество выпавших осадков за период времени, мм. При наведении курсора мыши на число - период времени, за который выпало указанное количество осадков.
R24 - Количество осадков - Количество выпавших осадков за 24 часа, мм.
S - Снежный покров - Высота снежного покрова, см. При наведении курсора мыши на число - состояние снежного покрова и степень покрытия местности в баллах.